Regional Weather Roundup
Issued by NWS

Home | Current Version | Previous Version | Graphics & Text | Print | Product List | Glossary On
Versions: 1 2 3 4 5 6 7 8 9 10 11 12 13 14 15 16 17 18 19 20 21 22 23 24 25 26 27 28 29 30 31 32 33 34 35 36 37 38 39 40 41 42 43 44 45 46 47 48 49 50
000
ASUS45 KCYS 270810
RWRWY

WYOMING REGIONAL WEATHER ROUNDUP
NATIONAL WEATHER SERVICE CHEYENNE WY
200 AM MDT WED AUG 27 2014

NOTE:  "FAIR" INDICATES FEW OR NO CLOUDS BELOW 12,000 FEET
WITH NO SIGNIFICANT WEATHER AND/OR OBSTRUCTIONS TO VISIBILITY.

WYZ001-270900-
YELLOWSTONE NATIONAL PARK

CITY           SKY/WX    TMP DP  RH WIND       PRES   REMARKS
LK YELLOWSTONE   N/A     35  34  96 NW3       30.38F
W YELLOWSTONE  NOT AVBL

$$
WYZ002>013-054>058-071-098>099-270900-
NORTHERN WYOMING

CITY           SKY/WX    TMP DP  RH WIND       PRES   REMARKS
JACKSON        MOCLDY    46  45  93 CALM      30.29S
CODY           PTCLDY    55  48  76 S5        30.19S
GREYBULL       CLEAR     60  50  69 CALM      30.13S
WORLAND        NOT AVBL
SHERIDAN       CLEAR     52  48  86 SE3       30.16F
BUFFALO        CLEAR     57  46  66 SW5       30.22F
GILLETTE       PTCLDY    56  52  86 S6        30.18F
HULETT         FAIR      55  52  88 MISG      30.20
NEWCASTLE      FAIR      63  54  72 MISG      30.20

$$
WYZ014>020-022>026-101>103-270900-
CENTRAL WYOMING

CITY           SKY/WX    TMP DP  RH WIND       PRES   REMARKS
BIG PINEY      CLOUDY    49  45  86 N8        30.30F
PINEDALE       CLOUDY    45  45 100 W6        30.31S
DUBOIS         FAIR      46  37  71 NW7       30.32S
LANDER         PTCLDY    58  46  64 W8        30.20F
RIVERTON       PTCLDY    58  47  66 NE10      30.20S
CASPER         MOCLDY    57  51  80 NE7       30.21F
DOUGLAS        PTCLDY    56  54  93 N7        30.21F

$$
WYZ021-027>030-104>119-270900-
SOUTHERN WYOMING

CITY           SKY/WX    TMP DP  RH WIND       PRES   REMARKS
EVANSTON       MOCLDY    53  43  68 CALM      30.29S
KEMMERER       CLOUDY    50  45  81 N9        30.30F
FORT BRIDGER   FAIR      53  46  77 CALM      30.30S
ROCK SPRINGS   MOCLDY    53  42  66 SE7       30.27F
DIXON          PTSUNNY   53  47  82 CALM      30.29S
RAWLINS        MOCLDY    54  46  74 NW6       30.26F
SARATOGA       FAIR      48  46  93 MISG      30.29F
LARAMIE        MOCLDY    51  45  79 SW5       30.29S
CHEYENNE       MOCLDY    53  50  89 W7        30.23F
TORRINGTON     MOCLDY    59  56  89 NE9       30.14F
PINE BLUFFS    CLOUDY    57  55  94 CALM      30.19F

$$


USA.gov is the U.S. government's official web portal to all federal, state and local government web resources and services.